Weather History for KPDK - December, 2011

Change the Weather History Date:

Thursday, December 22, 2011

  Actual Average Record
Temperature  
Mean Temperature 60 °F 43 °F  
Max Temperature 66 °F 52 °F 69 °F (2013)
Min Temperature 55 °F 34 °F 18 °F (2008)
Degree Days  
Heating Degree Days 4 22  
Month to date heating degree days 436  
Since 1 July heating degree days 963  
Growing Degree Days 10 (Base 50)    
Moisture  
Dew Point 61 °F    
Average Humidity 92    
Maximum Humidity 96    
Minimum Humidity 88    
Precipitation  
Precipitation 0.97 in 0.11 in 2.74 in (2013)
Month to date precipitation 3.24  
Year to date precipitation 52.05  
Sea Level Pressure  
Sea Level Pressure 29.99 in    
Wind  
Wind Speed 5 mph (South)    
Max Wind Speed 23 mph    
Max Gust Speed 30 mph    
Visibility 5 miles    
Events Rain , Thunderstorm    
T = Trace of Precipitation, MM = Missing Value Source: NWS Daily Summary

Daily Weather History Graph

Daily Weather History Graph

Search for Another Location

Airport or City:

Trip Planner

Search our weather history database for the weather conditions in past years. The results will help you decide how hot, cold, wet, or windy it might be!

Date:

Astronomy

Dec. 22, 2011 Rise Set
Actual Time 7:38 AM EST 5:32 PM EST
Civil Twilight 7:11 AM EST 6:00 PM EST
Nautical Twilight 6:39 AM EST 6:31 PM EST
Astronomical Twilight 6:09 AM EST 7:02 PM EST
Moon 5:21 AM EST (12/22) 3:42 PM EST (12/22)
Length of Visible Light 10h 49m
Length of Day
9h 53m
Waning Crescent, 6% of the Moon is Illuminated
Dec 22
Waning Crescent
Dec 24
New
Jan 1
First Quarter
Jan 9
Full
Jan 16
Last Quarter

Hourly Weather History & Observations

Time (EST) Temp. Dew Point Humidity Pressure Visibility Wind Dir Wind Speed Gust Speed Precip Events Conditions
12:53 AM 63.0 °F 61.0 °F 93% 30.01 in 3.0 mi South 4.6 mph - N/A   Overcast
1:04 AM 62.6 °F 60.8 °F 94% 30.03 in 2.0 mi South 3.5 mph - N/A   Overcast
1:37 AM 62.6 °F 60.8 °F 94% 30.03 in 1.5 mi Calm Calm - N/A   Overcast
1:53 AM 63.0 °F 61.0 °F 93% 30.01 in 1.2 mi South 3.5 mph - N/A   Overcast
2:08 AM 62.6 °F 60.8 °F 94% 30.03 in 3.0 mi South 3.5 mph - N/A   Overcast
2:31 AM 62.6 °F 60.8 °F 94% 30.03 in 2.5 mi South 5.8 mph - N/A   Overcast
2:50 AM 62.6 °F 60.8 °F 94% 30.03 in 3.0 mi South 3.5 mph - N/A   Overcast
2:53 AM 63.0 °F 61.0 °F 93% 30.02 in 4.0 mi South 3.5 mph - N/A   Overcast
3:26 AM 62.6 °F 60.8 °F 94% 30.03 in 2.0 mi South 3.5 mph - N/A   Overcast
3:45 AM 62.6 °F 60.8 °F 94% 30.04 in 4.0 mi South 3.5 mph - N/A   Overcast
3:53 AM 63.0 °F 61.0 °F 93% 30.02 in 6.0 mi South 3.5 mph - N/A   Overcast
4:41 AM 62.6 °F 60.8 °F 94% 30.04 in 8.0 mi Calm Calm - N/A   Overcast
4:53 AM 62.1 °F 61.0 °F 96% 30.02 in 9.0 mi South 4.6 mph - N/A   Overcast
5:53 AM 63.0 °F 61.0 °F 93% 30.03 in 4.0 mi SSE 5.8 mph - N/A   Overcast
6:53 AM 62.1 °F 60.1 °F 93% 30.03 in 8.0 mi SE 4.6 mph - 0.00 in   Overcast
7:53 AM 62.1 °F 60.1 °F 93% 30.02 in 1.0 mi Variable 3.5 mph - N/A   Overcast
7:58 AM 62.6 °F 60.8 °F 94% 30.04 in 0.8 mi SE 3.5 mph - N/A   Overcast
8:53 AM 62.1 °F 61.0 °F 96% 30.03 in 0.8 mi SSE 4.6 mph - N/A   Overcast
9:53 AM 63.0 °F 61.0 °F 93% 30.04 in 0.8 mi Calm Calm - 0.01 in   Overcast
10:00 AM 62.6 °F 60.8 °F 94% 30.06 in 1.0 mi ESE 3.5 mph - N/A   Overcast
10:10 AM 62.6 °F 60.8 °F 94% 30.06 in 8.0 mi ESE 3.5 mph - N/A   Overcast
10:41 AM 64.4 °F 60.8 °F 88% 30.06 in 9.0 mi SE 3.5 mph - N/A   Overcast
10:53 AM 64.0 °F 62.1 °F 93% 30.04 in 6.0 mi ESE 4.6 mph - 0.00 in Rain Light Rain
11:18 AM 64.4 °F 62.6 °F 94% 30.06 in 2.5 mi SE 4.6 mph - 0.02 in Rain Light Rain
11:28 AM 64.4 °F 62.6 °F 94% 30.06 in 5.0 mi SSE 4.6 mph - 0.02 in Rain Light Rain
11:39 AM 64.4 °F 62.6 °F 94% 30.04 in 2.0 mi SE 5.8 mph - 0.03 in Rain Light Rain
11:42 AM 64.4 °F 62.6 °F 94% 30.04 in 3.0 mi SSE 3.5 mph - 0.03 in Rain Light Rain
11:53 AM 64.9 °F 62.1 °F 90% 30.01 in 10.0 mi Variable 3.5 mph - 0.03 in   Overcast
12:53 PM 64.9 °F 63.0 °F 93% 29.96 in 5.0 mi SSE 8.1 mph - N/A   Overcast
12:54 PM 64.4 °F 62.6 °F 94% 29.98 in 5.0 mi SSE 6.9 mph - N/A   Overcast
1:40 PM 64.4 °F 62.6 °F 94% 29.94 in 0.8 mi SE 6.9 mph - 0.01 in Rain Light Rain
1:53 PM 64.9 °F 63.0 °F 93% 29.92 in 0.8 mi SSE 10.4 mph - 0.02 in Rain Light Rain
1:56 PM 64.4 °F 62.6 °F 94% 29.93 in 10.0 mi SSE 9.2 mph - 0.00 in   Overcast
2:06 PM 64.4 °F 62.6 °F 94% 29.93 in 10.0 mi SSE 6.9 mph - 0.00 in   Overcast
2:39 PM 66.2 °F 62.6 °F 88% 29.91 in 1.5 mi South 6.9 mph - 0.04 in Rain Rain
2:53 PM 66.2 °F 62.6 °F 88% 29.91 in 1.5 mi SSE 8.1 mph - N/A Rain Light Rain
3:00 PM 66.2 °F 64.4 °F 94% 29.90 in 5.0 mi SSE 6.9 mph - 0.00 in   Overcast
3:53 PM 66.9 °F 64.0 °F 90% 29.88 in 9.0 mi SSE 8.1 mph - 0.00 in   Overcast
4:43 PM 66.2 °F 62.6 °F 88% 29.90 in 4.0 mi South 10.4 mph - 0.06 in Rain , Thunderstorm Thunderstorms and Rain
4:53 PM 66.0 °F 63.0 °F 90% 29.87 in 4.0 mi SSE 8.1 mph - 0.11 in Rain , Thunderstorm Thunderstorms and Rain
5:53 PM 66.0 °F 63.0 °F 90% 29.88 in 4.0 mi South 9.2 mph - 0.23 in Rain , Thunderstorm Thunderstorms and Rain
6:53 PM 64.9 °F 62.1 °F 90% 29.92 in 4.0 mi Variable 5.8 mph 20.7 mph 0.44 in Rain , Thunderstorm Thunderstorms and Rain
6:58 PM 64.4 °F 60.8 °F 88% 29.94 in 6.0 mi SW 8.1 mph - 0.03 in Rain Light Rain
7:53 PM 63.0 °F 60.1 °F 90% 29.90 in 10.0 mi South 9.2 mph - 0.05 in   Partly Cloudy
8:08 PM 62.6 °F 60.8 °F 94% 29.91 in 10.0 mi South 8.1 mph - N/A   Mostly Cloudy
8:17 PM 62.6 °F 60.8 °F 94% 29.92 in 10.0 mi South 8.1 mph - N/A   Mostly Cloudy
8:53 PM 64.0 °F 61.0 °F 90% 29.93 in 10.0 mi SSW 13.8 mph - N/A   Overcast
9:53 PM 63.0 °F 60.1 °F 90% 29.96 in 10.0 mi SW 11.5 mph - N/A   Overcast
10:27 PM 57.2 °F 55.4 °F 94% 30.00 in 2.5 mi WNW 23.0 mph 29.9 mph 0.06 in Rain Rain
10:34 PM 57.2 °F 53.6 °F 88% 30.01 in 8.0 mi WNW 15.0 mph 29.9 mph 0.08 in Rain Light Rain
10:42 PM 57.2 °F 53.6 °F 88% 30.00 in 10.0 mi WNW 16.1 mph 26.5 mph 0.08 in   Overcast
10:49 PM 55.4 °F 53.6 °F 94% 30.02 in 10.0 mi WNW 12.7 mph 21.9 mph 0.08 in   Overcast
10:53 PM 55.9 °F 53.1 °F 90% 30.01 in 10.0 mi WNW 13.8 mph 23.0 mph 0.08 in   Overcast
11:19 PM 55.4 °F 51.8 °F 88% 30.03 in 10.0 mi NW 12.7 mph 21.9 mph N/A   Overcast
11:53 PM 55.0 °F 52.0 °F 89% 30.04 in 10.0 mi WNW 5.8 mph - N/A   Overcast